International Skating Union - Official Site

ISU Neo Senior World Cup Speed Skating Innsbruck
Januari 27-28, 2018

Draw | Lap Times | Index | World Cup

Referee: Ekaterina  PILSHCHIKOVA  (RUS)
Starter: Giovanni  Tallamini  (ITA)
StartTime: EndTime: Air Temp: Ice Temp: Humidity:
14:37 14:50 5℃ 5.4℃ 28%
Result 3000m Ladies
Rankings as of Jan 28 2018 4:45PM
Rank: No.: Name: Nation: Time: Behind: Points:
1 216 Natálie  Kerschbaummayr CZE CZE 4:24.20200m - 21.47 - (21.4)
600m - 54.56 - (33.0)
1000m - 1:29.30 - (34.7)
1400m - 2:03.88 - (34.5)
1800m - 2:38.90 - (35.0)
2200m - 3:13.68 - (34.7)
2600m - 3:48.89 - (35.2)
3000m - 4:24.20 - (35.3)
100
2 271 Anastasiia  Zueva RUS RUS 4:27.87200m - 21.17 - (21.1)
600m - 55.35 - (34.1)
1000m - 1:29.71 - (34.3)
1400m - 2:04.34 - (34.6)
1800m - 2:38.79 - (34.4)
2200m - 3:13.76 - (34.9)
2600m - 3:49.80 - (36.0)
3000m - 4:27.87 - (38.0)
3.67 80
3 270 Veronika  Suslova RUS RUS 4:29.71200m - 20.94 - (20.9)
600m - 54.41 - (33.4)
1000m - 1:28.90 - (34.4)
1400m - 2:03.55 - (34.6)
1800m - 2:38.65 - (35.1)
2200m - 3:14.31 - (35.6)
2600m - 3:51.30 - (36.9)
3000m - 4:29.71 - (38.3)
5.51 70
4 215 Eliska  Drimalova CZE CZE 4:36.21200m - 21.73 - (21.7)
600m - 56.48 - (34.7)
1000m - 1:32.06 - (35.5)
1400m - 2:08.21 - (36.1)
1800m - 2:44.76 - (36.5)
2200m - 3:21.69 - (36.9)
2600m - 3:58.88 - (37.1)
3000m - 4:36.21 - (37.3)
12.01 60
5 233 Valeriya  Chadova KAZ KAZ 4:38.27200m - 21.39 - (21.3)
600m - 55.13 - (33.7)
1000m - 1:30.42 - (35.2)
1400m - 2:05.94 - (35.5)
1800m - 2:42.66 - (36.7)
2200m - 3:20.88 - (38.2)
2600m - 3:59.95 - (39.0)
3000m - 4:38.27 - (38.3)
14.07 50
6 262 Bianca  Stanica ROU ROU 4:48.02200m - 22.10 - (22.1)
600m - 57.96 - (35.8)
1000m - 1:34.96 - (36.9)
1400m - 2:12.25 - (37.2)
1800m - 2:49.95 - (37.6)
2200m - 3:28.25 - (38.3)
2600m - 4:08.03 - (39.7)
3000m - 4:48.02 - (39.9)
23.82 44